User: anonymous   Login
Location: Unspecified
(0.0000°N, 0.0000°E)
Time: 15:14:06
(UTC+00:00)
Language:

APRIZESAT 9 - Orbit

View from above orbital plane
View from above orbital plane
View from above satellite
View from above satellite

Ground track
Ground track

The orbit data is extracted from the following two-line orbital elements,

1 40018U 14033J   18052.17821454  .00000022  00000-0  11694-4 0  9991
2 40018  97.8096 284.3497 0070365 233.1687 126.3053 14.69856366197058
Epoch (UTC): 21 February 2018 04:16:37
Eccentricity: 0.0070365
inclination: 97.8096°
perigee height: 612 km
apogee height: 711 km
right ascension of ascending node: 284.3497°
argument of perigee: 233.1687°
revolutions per day: 14.69856366
mean anomaly at epoch: 126.3053°
orbit number at epoch: 19705

The dashed part of the orbit path shows where the satellite is in the earth's shadow,  

DLR